This demonstration page uses our WeatherBlox Daily Observations layout. Learn more.

Left ArrowRight Arrow

34.74481, -87.66753

Hourly Observations for August 10, 2015

Temp ( °F °C ) Dew Point ( °F °C ) Humidity (%) Winds ( mph kmh ) Pressure ( in mb ) Visibility ( mi km ) Precip ( " mm )
12:53 am 00:53 Clear 74 23.3 71 21.7 91 91 Calm 29.93 1014 7 11 0.00 0.00
1:53 am 01:53 Clear 74 23.3 71 21.7 91 91 Calm 29.92 1013 9 14 0.00 0.00
2:53 am 02:53 Clear 74 23.3 71 21.7 91 91 Calm 29.91 1013 9 14 0.00 0.00
3:53 am 03:53 Clear 74 23.3 70 21.1 88 88 Calm 29.90 1013 9 14 0.00 0.00
4:53 am 04:53 Clear 73 22.8 70 21.1 90 90 Calm 29.90 1012 8 13 0.00 0.00
5:53 am 05:53 Clear 72 22.2 70 21.1 94 94 Calm 29.90 1013 7 11 0.00 0.00
6:53 am 06:53 Sunny with Mist and Fog 74 23.3 71 21.7 91 91 Calm 29.93 1014 6 10 0.00 0.00
7:53 am 07:53 Sunny 78 25.6 72 22.2 82 82 Calm 29.94 1014 8 13 0.00 0.00
8:53 am 08:53 Sunny 80 26.7 73 22.8 79 79 Calm 29.96 1015 8 13 0.00 0.00
9:53 am 09:53 Mostly Sunny 79 26.1 74 23.3 85 85 WNW 7 11 29.97 1015 8 13 0.00 0.00
10:53 am 10:53 Mostly Sunny 81 27.2 74 23.3 79 79 WSW 6 9 29.98 1015 8 13 0.00 0.00
11:53 am 11:53 Mostly Sunny 83 28.3 75 23.9 77 77 S 9 15 29.95 1014 8 13 0.00 0.03
12:53 pm 12:53 Sunny 85 29.4 75 23.9 72 72 SSW 6 9 29.93 1014 8 13 0.00 0.00
1:53 pm 13:53 Sunny 91 32.8 74 23.3 57 57 W 12 19 29.92 1013 10 16 0.00 0.00
2:53 pm 14:53 Sunny 91 32.8 72 22.2 54 54 NW 6 9 29.89 1012 10 16 0.00 0.00
3:53 pm 15:53 Sunny 90 32.2 74 23.3 59 59 NW 7 11 29.87 1012 10 16 0.00 0.00
4:53 pm 16:53 Sunny 89 31.7 73 22.8 59 59 NW 8 13 29.88 1012 10 16 0.00 0.00
5:53 pm 17:53 Sunny 86 30 70 21.1 59 59 NNW 8 13 29.88 1012 10 16 0.00 0.00
6:53 pm 18:53 Sunny 85 29.4 71 21.7 63 63 NW 5 7 29.86 1011 10 16 0.00 0.00
7:53 pm 19:53 Clear 81 27.2 72 22.2 74 74 Calm 29.87 1012 10 16 0.00 0.00
8:53 pm 20:53 Clear 79 26.1 70 21.1 74 74 Calm 29.91 1013 10 16 0.00 0.00
9:53 pm 21:53 Clear 79 26.1 70 21.1 74 74 Calm 29.92 1013 10 16 0.00 0.00
10:53 pm 22:53 Clear 75 23.9 71 21.7 88 88 Calm 29.94 1014 10 16 0.00 0.00
11:53 pm 23:53 Clear 73 22.8 70 21.1 90 90 ESE 3 6 29.93 1014 10 16 0.00 0.00

Powered by AerisWeather